Regional Weather Roundup
Issued by NWS Charleston, SC

Home | Current Version | Previous Version | Text Only | Print | Product List | Glossary On
Versions: 1 2 3 4 5 6 7 8 9 10 11 12 13 14 15 16 17 18 19 20 21 22 23 24 25 26 27 28 29 30 31 32 33 34 35 36 37 38 39 40 41 42 43 44 45 46 47 48 49 50
000
ASUS42 KCHS 310025
RWRCHS

REGIONAL WEATHER ROUNDUP
NATIONAL WEATHER SERVICE CHARLESTON SC
800 PM EDT SAT AUG 30 2014

NOTE: "FAIR" INDICATES FEW OR NO CLOUDS BELOW 12,000 FEET WITH NO
SIGNIFICANT WEATHER AND/OR OBSTRUCTIONS TO VISIBILITY.

NOT ALL STATIONS ARE QUALITY CONTROLLED BY THE NATIONAL
WEATHER SERVICE. USE DATA WITH CAUTION...ESPECIALLY
DEWPOINT OBSERVATIONS.

SCZ027-030-031-034>040-042>050-310100-
...SOUTH CAROLINA...

CITY           SKY/WX    TMP DP  RH WIND       PRES   REMARKS
N CHARLESTON   PTCLDY    83  74  74 SE9       30.12R
6HR MIN TEMP:  83; 6HR MAX TEMP:  92;

WATERFRONT PRK   N/A     84 N/A N/A E22         N/A
FORT JOHNSON   NOT AVBL
MOUNT PLEASANT FAIR      81  75  83 E3        30.12R
JOHNS ISLAND   PTCLDY    81  79  94 CALM      30.12R
PINOPOLIS        N/A     88  73  62 SE2       30.03R HX  96
MONCKS CORNER    N/A     81  75  83 CALM      30.12R
SUMMERVILLE    FAIR      81  73  78 SE3       30.13R
BEAUFORT MCAS  CLEAR     82  75  79 S5        30.11R
6HR MIN TEMP:  82; 6HR MAX TEMP:  91;

BEAUFORT ARPT  FAIR      81  77  89 CALM      30.11R
HILTON HEAD IS PTCLDY    82  75  78 E3        30.12R
GEORGETOWN     NOT AVBL
WALTERBORO     CLEAR     82  68  61 SE6       30.12R
ORANGEBURG     CLOUDY    84  70  62 SE7       30.11R
6HR MIN TEMP:  84; 6HR MAX TEMP:  94;

BARNWELL       CLOUDY    84  72  65 SE9       30.11R
AIKEN          MOCLDY    88  70  55 E6        30.13R HX  92
MANNING        FAIR      82  73  74 CALM      30.12R
KINGSTREE      NOT AVBL
COLUMBIA       PTCLDY    87  65  47 E9        30.09R
6HR MIN TEMP:  87; 6HR MAX TEMP:  96;

SUMTER         CLEAR     85  70  60 S6        30.10R
6HR MIN TEMP:  85; 6HR MAX TEMP:  95;

FLORENCE       CLEAR     84  70  62 SE8       30.11R
6HR MIN TEMP:  84; 6HR MAX TEMP:  93;

MYRTLE BEACH   CLEAR     82  73  74 S12       30.12F
N MYRTLE BEACH PTCLDY    82  74  76 SE7       30.12S
6HR MIN TEMP:  82; 6HR MAX TEMP:  86;


$$

GAZ063-065-086>088-099>101-113>116-118-119-134-136>141-150-310100-
...GEORGIA...

CITY           SKY/WX    TMP DP  RH WIND       PRES   REMARKS
SAVANNAH ARPT  PTCLDY    84  73  69 SE7       30.11R HX  90
6HR MIN TEMP:  84; 6HR MAX TEMP:  93;

HUNTER AAF     CLEAR     83  75  77 SE6       30.09R
6HR MIN TEMP:  83; 6HR MAX TEMP:  92;

FORT STEWART   MOCLDY    84  73  70 SE6       30.09R HX  90
6HR MIN TEMP:  84; 6HR MAX TEMP:  93;

STATESBORO     NOT AVBL
SYLVANIA       CLEAR     81  73  76 CALM      30.11R
CLAXTON        NOT AVBL
THOMSON        PTCLDY    85  76  75 CALM      30.13R HX  94
AUGUSTA-BUSH   PTCLDY    84  71  65 SE6       30.07R
6HR MIN TEMP:  84; 6HR MAX TEMP:  95;

AUGUSTA-DANIEL PTCLDY    90  69  50 SE7       30.09R HX  94
SWAINSBORO     FAIR      88  73  62 SE9       30.10R HX  96
VIDALIA          N/A     86  72  62 SE8       30.09R HX  92
ALMA           CLEAR     86  71  60 E8        30.07R HX  91
6HR MIN TEMP:  86; 6HR MAX TEMP:  96;

WAYCROSS       CLEAR     89  77  67 SE7       30.08R HX 101
JESUP            N/A     86  77  74 SE3       30.10R HX  97
BRUNSWICK      CLEAR     82  73  74 E5        30.11R
SAINT SIMONS   PTCLDY    82  76  81 E6        30.09R
6HR MIN TEMP:  82; 6HR MAX TEMP:  88;


$$

SCZ027-028-034-036>038-045-046-048>050-GAZ119-141-310100-
...LAKE AND SUPPLEMENTAL COASTAL OBSERVATIONS...

STATION/POSITION TIME  TEMP    WIND        PRES    WAVE   SWELL
                       AIR SEA DIR/SP/G            HT/PER HT/PER/DIR
                 (UTC) (F)     (DEG/KT/KT) (MB)    (FT/S) (FT/S/D)
UPR LAKE MARION  NOT AVBL
WINYAH BAY       0000   82     120/  7     1019.0S
LAKE MURRAY      2300   89     130/  4/  8 1017.9R
ACE BASIN NERRS  0000   82     130/  2     1019.0S
FORT PULASKI     0000   82     120/  5/  8 1019.7R
SAPELO ISLAND    0000   82     110/  3     1020.0S

$$

ANZ835-935-AMZ111-154-330-350-352-354-374-450-454-472-310100-
...C-MAN AND BUOY OBSERVATIONS...

STATION/POSITION TIME  TEMP    WIND        PRES    WAVE   SWELL
                       AIR SEA DIR/SP/G            HT/PER HT/PER/DIR
                 (UTC) (F)     (DEG/KT/KT) (MB)    (FT/S) (FT/S/D)
FOLLY BEACH CMAN 0000   83     100/  9/ 10 1020.1R
BUOY 41004       0000   83 84  100/ 10/ 12 1019.1F   2/ 8   2/ 8
BUOY 41008       0000   83 85  120/ 10/ 12 1019.0R   2/ 8   2/100/ 8
5E ST. MARYS GA  0000      85                N/A     2/ 8
FRYING PAN BUOY  NOT AVBL
BUOY 41025       0000   80     100/ 10/ 12 1021.2F   3/ 8   3/100/ 8
CAPE LOOKOUT NC  0000   81     150/  8/ 10 1020.8S
BUOY 41002       NOT AVBL
BUOY 41010       0000   83 85  130/  8/ 12 1019.6R   3/ 9   3/100/ 9
BUOY 41012       NOT AVBL
ST AUGUSTINE FL  0000   83     140/ 12/ 13 1019.4R
CAPERS NEARSHORE 2300   84     130/ 12/ 14   N/A
FRIPP NEARSHORE  NOT AVBL


$$



USA.gov is the U.S. government's official web portal to all federal, state and local government web resources and services.